EN

Hourly Weather La Baule-Escoublac

Today, 3 August, Tuesday

Time Temperature Precipitation Wind Pressure Humidity
00:00 +14°C° 0 mm 4 mps 760 mmHg 77%
01:00 +14°C° 0 mm 4 mps 760 mmHg 81%
02:00 +13°C° 0 mm 4 mps 760 mmHg 86%
03:00 +13°C° 0 mm 3 mps 760 mmHg 90%
04:00 +13°C° 0 mm 3 mps 760 mmHg 86%
05:00 +14°C° 0 mm 3 mps 760 mmHg 83%
06:00 +14°C° 0 mm 3 mps 760 mmHg 79%
07:00 +15°C° 0.5 mm 2 mps 760 mmHg 81%
08:00 +15°C° 0.5 mm 2 mps 760 mmHg 83%
09:00 +15°C° 0.5 mm 1 mps 760 mmHg 85%
10:00 +15°C° 0.2 mm 1 mps 760 mmHg 84%
11:00 +15°C° 0.2 mm 1 mps 760 mmHg 83%
12:00 +16°C° 0.2 mm 1 mps 760 mmHg 82%
13:00 +17°C° 0 mm 2 mps 760 mmHg 77%
14:00 +18°C° 0 mm 3 mps 759 mmHg 72%
15:00 +19°C° 0 mm 3 mps 759 mmHg 67%
16:00 +18°C° 0.3 mm 3 mps 759 mmHg 73%
17:00 +17°C° 0.3 mm 3 mps 758 mmHg 80%
18:00 +16°C° 0.3 mm 3 mps 758 mmHg 86%
19:00 +15°C° 1 mm 4 mps 758 mmHg 89%
20:00 +15°C° 1 mm 5 mps 758 mmHg 92%
21:00 +15°C° 1 mm 6 mps 757 mmHg 95%
22:00 +15°C° 1.3 mm 6 mps 757 mmHg 95%
23:00 +15°C° 1.3 mm 6 mps 756 mmHg 95%

Tomorrow, 4 August, Wednesday

Time Temperature Precipitation Wind Pressure Humidity
00:00 +15°C° 1.3 mm 6 mps 756 mmHg 95%
01:00 +16°C° 0.4 mm 5 mps 755 mmHg 95%
02:00 +17°C° 0.4 mm 4 mps 755 mmHg 95%
03:00 +17°C° 0.4 mm 4 mps 755 mmHg 95%
04:00 +17°C° 0.3 mm 4 mps 755 mmHg 95%
05:00 +17°C° 0.3 mm 4 mps 755 mmHg 96%
06:00 +17°C° 0.3 mm 4 mps 755 mmHg 96%
07:00 +16°C° 0.3 mm 5 mps 755 mmHg 95%
08:00 +16°C° 0.3 mm 6 mps 756 mmHg 94%
09:00 +16°C° 0.3 mm 7 mps 756 mmHg 94%
10:00 +16°C° 0.1 mm 7 mps 757 mmHg 92%
11:00 +16°C° 0.1 mm 7 mps 757 mmHg 90%
12:00 +16°C° 0.1 mm 7 mps 758 mmHg 88%
13:00 +17°C° 0 mm 6 mps 758 mmHg 79%
14:00 +20°C° 0 mm 6 mps 758 mmHg 70%
15:00 +21°C° 0 mm 5 mps 759 mmHg 61%
16:00 +21°C° 0.1 mm 5 mps 759 mmHg 64%
17:00 +20°C° 0.1 mm 6 mps 759 mmHg 67%
18:00 +20°C° 0.1 mm 6 mps 759 mmHg 70%
19:00 +19°C° 0 mm 6 mps 759 mmHg 74%
20:00 +17°C° 0 mm 6 mps 760 mmHg 78%
21:00 +16°C° 0 mm 6 mps 760 mmHg 81%
22:00 +16°C° 0 mm 5 mps 760 mmHg 81%
23:00 +15°C° 0 mm 4 mps 760 mmHg 81%

Day after tomorrow, 5 August, Thursday

Time Temperature Precipitation Wind Pressure Humidity
00:00 +15°C° 0 mm 4 mps 759 mmHg 81%
01:00 +15°C° 0 mm 4 mps 759 mmHg 83%
02:00 +15°C° 0 mm 4 mps 759 mmHg 85%
03:00 +14°C° 0 mm 4 mps 758 mmHg 87%
04:00 +15°C° 0 mm 5 mps 758 mmHg 86%
05:00 +16°C° 0 mm 5 mps 758 mmHg 85%
06:00 +16°C° 0 mm 6 mps 757 mmHg 83%
07:00 +17°C° 0.2 mm 6 mps 757 mmHg 83%
08:00 +17°C° 0.2 mm 7 mps 757 mmHg 82%
09:00 +18°C° 0.2 mm 8 mps 756 mmHg 82%
10:00 +18°C° 0.4 mm 8 mps 756 mmHg 86%
11:00 +18°C° 0.4 mm 9 mps 756 mmHg 89%
12:00 +18°C° 0.4 mm 9 mps 755 mmHg 93%
13:00 +19°C° 0.2 mm 9 mps 755 mmHg 86%
14:00 +21°C° 0.2 mm 9 mps 754 mmHg 79%
15:00 +22°C° 0.2 mm 9 mps 754 mmHg 72%
16:00 +21°C° 0.1 mm 9 mps 754 mmHg 74%
17:00 +19°C° 0.1 mm 9 mps 754 mmHg 76%
18:00 +20°C° 0.1 mm 8 mps 754 mmHg 79%
19:00 +18°C° 0.1 mm 8 mps 754 mmHg 82%
20:00 +17°C° 0.1 mm 8 mps 754 mmHg 86%
21:00 +17°C° 0.1 mm 8 mps 754 mmHg 89%
22:00 +17°C° 0.1 mm 8 mps 754 mmHg 88%
23:00 +17°C° 0.1 mm 9 mps 755 mmHg 87%

6 August, Friday

Time Temperature Precipitation Wind Pressure Humidity
00:00 +16°C° 0.1 mm 9 mps 755 mmHg 86%
01:00 +16°C° 0 mm 9 mps 755 mmHg 86%
02:00 +16°C° 0 mm 9 mps 755 mmHg 85%
03:00 +16°C° 0 mm 8 mps 755 mmHg 84%
04:00 +16°C° 0.1 mm 8 mps 755 mmHg 83%
05:00 +16°C° 0.1 mm 8 mps 755 mmHg 82%
06:00 +16°C° 0.1 mm 8 mps 755 mmHg 80%
07:00 +17°C° 0 mm 7 mps 755 mmHg 74%
08:00 +18°C° 0 mm 7 mps 755 mmHg 68%
09:00 +20°C° 0 mm 7 mps 755 mmHg 61%
10:00 +20°C° 0.1 mm 7 mps 755 mmHg 61%
11:00 +21°C° 0.1 mm 7 mps 755 mmHg 60%
12:00 +21°C° 0.1 mm 7 mps 755 mmHg 60%
13:00 +21°C° 0 mm 7 mps 755 mmHg 59%
14:00 +21°C° 0 mm 7 mps 755 mmHg 59%
15:00 +21°C° 0 mm 6 mps 755 mmHg 59%
16:00 +20°C° 0.2 mm 6 mps 755 mmHg 63%
17:00 +20°C° 0.2 mm 6 mps 754 mmHg 68%
18:00 +19°C° 0.2 mm 6 mps 754 mmHg 72%
19:00 +17°C° 0.1 mm 6 mps 754 mmHg 77%
20:00 +16°C° 0.1 mm 6 mps 754 mmHg 81%
21:00 +15°C° 0.1 mm 6 mps 754 mmHg 86%
22:00 +15°C° 0.3 mm 6 mps 753 mmHg 87%
23:00 +16°C° 0.3 mm 7 mps 753 mmHg 87%

7 August, Saturday

Time Temperature Precipitation Wind Pressure Humidity
00:00 +16°C° 0.3 mm 7 mps 753 mmHg 88%
01:00 +16°C° 0.6 mm 7 mps 753 mmHg 88%
02:00 +16°C° 0.6 mm 8 mps 752 mmHg 88%
03:00 +16°C° 0.6 mm 8 mps 752 mmHg 88%
04:00 +16°C° 0.3 mm 8 mps 752 mmHg 87%
05:00 +16°C° 0.3 mm 8 mps 752 mmHg 86%
06:00 +15°C° 0.3 mm 8 mps 753 mmHg 84%
07:00 +16°C° 0 mm 8 mps 753 mmHg 78%
08:00 +18°C° 0 mm 8 mps 753 mmHg 72%
09:00 +20°C° 0 mm 8 mps 754 mmHg 66%
10:00 +20°C° 0 mm 8 mps 754 mmHg 63%
11:00 +21°C° 0 mm 8 mps 755 mmHg 61%
12:00 +21°C° 0 mm 8 mps 755 mmHg 58%
13:00 +21°C° 0 mm 8 mps 755 mmHg 59%
14:00 +21°C° 0 mm 8 mps 756 mmHg 59%
15:00 +21°C° 0 mm 8 mps 756 mmHg 59%
16:00 +21°C° 0 mm 8 mps 757 mmHg 62%
17:00 +20°C° 0 mm 8 mps 757 mmHg 65%
18:00 +18°C° 0 mm 8 mps 758 mmHg 68%
19:00 +17°C° 0 mm 8 mps 758 mmHg 72%
20:00 +17°C° 0 mm 7 mps 759 mmHg 76%
21:00 +16°C° 0 mm 6 mps 759 mmHg 80%
22:00 +15°C° 0 mm 6 mps 760 mmHg 82%
23:00 +15°C° 0 mm 5 mps 760 mmHg 85%

8 August, Sunday

Time Temperature Precipitation Wind Pressure Humidity
00:00 +14°C° 0 mm 5 mps 761 mmHg 88%
01:00 +14°C° 0 mm 5 mps 761 mmHg 88%
02:00 +14°C° 0 mm 4 mps 761 mmHg 88%
03:00 +14°C° 0 mm 4 mps 761 mmHg 89%
04:00 +14°C° 0 mm 4 mps 761 mmHg 88%
05:00 +14°C° 0 mm 4 mps 762 mmHg 88%
06:00 +14°C° 0 mm 4 mps 762 mmHg 87%
07:00 +17°C° 0 mm 4 mps 762 mmHg 78%
08:00 +19°C° 0 mm 5 mps 763 mmHg 69%
09:00 +20°C° 0 mm 5 mps 763 mmHg 60%
10:00 +21°C° 0 mm 5 mps 763 mmHg 59%
11:00 +21°C° 0 mm 6 mps 764 mmHg 58%
12:00 +21°C° 0 mm 6 mps 764 mmHg 57%
13:00 +21°C° 0 mm 6 mps 764 mmHg 59%
14:00 +21°C° 0 mm 6 mps 764 mmHg 60%
15:00 +21°C° 0 mm 6 mps 764 mmHg 61%
16:00 +21°C° 0 mm 6 mps 764 mmHg 64%
17:00 +20°C° 0 mm 6 mps 765 mmHg 67%
18:00 +20°C° 0 mm 5 mps 765 mmHg 69%
19:00 +19°C° 0 mm 5 mps 765 mmHg 76%
20:00 +17°C° 0 mm 4 mps 766 mmHg 83%
21:00 +15°C° 0 mm 4 mps 766 mmHg 89%
22:00 +15°C° 0 mm 4 mps 766 mmHg 89%
23:00 +16°C° 0 mm 3 mps 766 mmHg 89%
Show more